CAPE
14 33 36 124 114 34 12 74 0 12 12 25 47 51 28 0 0 0 0 1 1 2 3 4 4 2 2 2 2 3 1 0 0 0 0 0 0 0
1 37 39 99 102 120 130 88 82 44 57 54 77 0 1 0 0 0 2 1 1 1 2 1 0 0 0 0 0 0 0 0 0 0 0 0 0 0
21 39 58 44 84 89 106 42 18 35 41 48 0 3 3 3 4 5 4 3 2 2 0 0 0 0 0 0 0 0 0 0 0 0 0 0 0 0
17 30 54 61 101 68 22 8 6 4 11 12 4 0 1 5 6 5 6 3 2 1 0 0 0 0 0 0 0 0 0 0 0 0 0 0 0 0
1 43 22 30 20 14 1 0 32 13 2 12 18 0 7 4 5 5 4 3 2 1 0 0 0 0 0 0 0 0 0 0 0 0 0 0 0 0
44 36 21 12 0 0 0 21 43 40 30 19 0 0 1 4 4 4 8 2 2 2 0 0 0 0 0 0 0 0 0 0 0 0 0 0 0 0
0 0 0 0 0 4 19 16 18 14 6 4 0 0 0 7 3 6 9 3 2 0 0 0 0 0 0 0 0 0 0 0 0 0 0 0 0 0
0 0 0 0 0 0 0 0 0 4 5 0 0 0 0 5 10 5 2 4 2 0 0 0 0 0 0 0 0 0 0 0 0 0 0 0 0 0
0 0 0 0 0 0 3 4 6 6 3 0 0 0 3 7 4 4 4 2 0 0 0 0 0 0 0 0 0 0 0 0 0 0 0 0 0 0
0 0 0 0 1 0 5 6 14 13 7 4 4 9 4 2 0 0 0 0 0 0 0 0 0 0 0 0 0 0 0 0 0 0 0 0 0 0
2 3 2 3 8 7 5 14 22 11 3 4 4 3 1 1 0 0 0 0 1 0 0 0 0 0 0 0 0 0 0 0 0 0 0 0 0 0
4 5 4 5 5 5 5 11 20 16 4 4 2 2 1 1 0 0 0 1 0 0 0 0 0 0 0 0 0 0 0 0 0 0 0 0 0 0
9 10 5 5 4 4 4 5 13 3 3 1 0 0 0 0 0 0 0 0 0 0 0 0 0 0 0 0 0 0 0 0 0 0 0 0 0 0
13 5 3 3 5 5 3 2 2 2 1 0 0 0 0 0 0 0 0 0 0 0 0 0 0 0 0 0 0 0 0 0 0 0 0 0 0 0
3 2 2 2 1 1 1 1 0 0 0 1 1 0 0 0 0 0 0 0 0 0 0 0 0 0 0 0 0 0 0 0 0 0 0 0 0 0
0 0 1 1 0 0 0 0 0 0 0 0 0 0 0 0 0 0 0 0 0 0 0 0 0 0 0 0 0 0 0 0 0 0 0 0 0 1
1 1 1 1 0 0 0 0 0 0 0 0 0 0 0 0 0 0 0 0 0 0 0 0 0 0 0 0 0 0 0 0 0 0 0 0 0 1
0 0 0 1 1 1 0 0 0 0 0 0 0 0 0 0 0 0 0 0 0 0 0 0 0 0 0 0 0 0 0 0 1 0 1 0 0 0
1 1 1 1 1 0 0 0 0 0 0 0 0 0 0 0 0 0 0 0 0 0 0 0 0 0 0 0 0 0 0 0 2 2 1 0 1 0
0 0 0 0 0 0 0 0 0 0 0 0 0 0 0 0 0 0 0 0 0 0 0 0 0 0 0 0 0 0 0 0 1 0 0 0 0 0
0 0 0 0 0 0 0 0 0 0 0 0 0 0 0 0 0 0 0 0 0 0 0 0 0 0 0 0 0 0 0 0 0 0 0 0 0 0
0 0 0 0 0 0 0 0 0 0 0 0 0 0 0 0 0 0 0 0 0 0 0 0 0 0 0 0 0 0 0 1 0 1 0 0 0 2
0 0 0 0 0 0 0 0 0 0 0 0 0 0 0 0 0 0 0 0 0 0 0 0 0 0 0 0 0 0 1 1 1 0 0 3 0 0
CIN
-18 -16 -7 -2 -4 -3 -6 -4 -1 -1 -3 -3 -12 -7 -20 0 0 0 0 0 0 0 0 0 0 0 0 0 0 0 0 0 0 0 0 0 0 0
-5 -4 -5 -5 -7 -5 -12 -25 -17 -8 -8 -10 -1 0 0 0 0 0 0 0 0 0 0 0 0 0 0 0 0 0 0 0 0 0 0 0 0 0
-2 -4 -6 -9 -8 -10 -18 -30 -34 -28 -12 -13 0 0 0 0 0 0 0 0 0 0 0 0 0 0 0 0 0 0 0 0 0 0 0 0 0 0
-5 -9 -2 -7 -23 -31 -35 -51 -26 -48 -53 -34 -55 0 0 0 0 0 0 0 0 0 0 0 0 0 0 0 0 0 0 0 0 0 0 0 0 0
0 -4 -10 -16 -12 -56 -50 -3 -27 -46 -32 -25 -35 0 0 0 0 0 0 0 0 0 0 0 0 0 0 0 0 0 0 0 0 0 0 0 0 0
-24 -45 -37 -47 0 0 0 -26 -24 -25 -54 -35 0 0 0 0 0 0 0 0 0 0 0 0 0 0 0 0 0 0 0 0 0 0 0 0 0 0
0 0 0 -16 -18 -2 -20 -43 -47 -52 -54 -31 0 0 0 0 0 0 0 0 0 0 0 0 0 0 0 0 0 0 0 0 0 0 0 0 0 0
0 0 0 0 0 0 0 0 0 -29 -23 0 0 0 0 0 0 0 0 0 0 0 0 0 0 0 0 0 0 0 0 0 0 0 0 0 0 0
0 0 0 0 0 0 0 0 0 0 0 0 0 0 0 0 0 0 0 0 0 0 0 0 0 0 0 0 0 0 0 0 0 0 0 0 0 0
0 0 0 0 0 0 0 0 0 0 0 0 0 0 0 0 0 0 0 0 0 0 0 0 0 0 0 0 0 0 0 0 0 0 0 0 0 0
0 0 0 0 0 0 0 0 0 0 0 0 0 0 0 0 0 0 0 0 0 0 0 0 0 0 0 0 0 0 0 0 0 0 0 0 0 0
0 0 0 0 0 0 0 0 0 0 0 0 0 0 0 0 0 0 0 0 0 0 0 0 0 0 0 0 0 0 0 0 0 0 0 0 0 0
0 0 0 0 0 0 0 0 0 0 0 0 0 0 0 0 0 0 0 0 0 0 0 0 0 0 0 0 0 0 0 0 0 0 0 0 0 0
0 0 0 0 0 0 0 0 0 0 0 0 0 0 0 0 0 0 0 0 0 0 0 0 0 0 0 0 0 0 0 0 0 0 0 0 0 0
0 0 0 0 0 0 0 0 0 0 0 0 0 0 0 0 0 0 0 0 0 0 0 0 0 0 0 0 0 0 0 0 0 0 0 0 0 0
0 0 0 0 0 0 0 0 0 0 0 0 0 0 0 0 0 0 0 0 0 0 0 0 0 0 0 0 0 0 0 0 0 0 0 0 0 -1
0 0 0 0 0 0 0 0 0 0 0 0 0 0 0 0 0 0 0 0 0 0 0 0 0 0 0 0 0 0 0 0 -1 -1 0 0 0 0
0 0 0 0 0 0 0 0 0 0 0 0 0 0 0 0 0 0 0 0 0 0 0 0 0 0 0 0 0 0 0 0 -2 -3 -3 -1 -1 0
0 0 0 0 0 0 0 0 0 0 0 0 0 0 0 0 0 0 0 0 0 0 0 0 0 0 0 0 0 0 0 -2 -1 -1 -2 -4 -1 0
0 0 0 0 0 0 0 0 0 0 0 0 0 0 0 0 0 0 0 0 0 0 0 0 0 0 0 0 0 0 0 0 -1 -2 0 -1 0 0
0 0 0 0 0 0 0 0 0 0 0 0 0 0 0 0 0 0 0 0 0 0 0 0 0 0 0 0 0 0 0 0 0 0 -1 0 -1 0
0 0 0 0 0 0 0 0 0 0 0 0 0 0 0 0 0 0 0 0 0 0 0 0 0 0 0 0 0 0 0 -2 0 -1 0 0 0 0
0 0 0 0 0 0 0 0 0 0 0 0 0 0 0 0 0 0 0 0 0 0 0 0 0 0 0 0 0 0 -3 -3 -3 -2 0 -1 0 0
Wind_Speed
28 24 20 20 22 19 18 15 14 15 11 10 12 10 8 11 12 14 18 22 20 18 17 18 20 22 24 25 26 27 28 29 31 33 35 36 37 38
27 25 22 21 19 18 16 14 13 13 12 10 12 13 15 14 15 17 18 19 19 19 17 18 20 23 25 26 26 27 28 30 32 34 35 38 39 40
27 22 22 18 16 15 13 12 12 13 14 15 16 14 17 16 16 17 19 19 17 18 18 19 21 24 25 26 27 27 30 32 34 35 38 40 41 41
25 22 19 16 16 19 16 16 17 17 18 21 20 19 21 20 19 20 19 17 16 17 20 22 23 26 27 27 27 29 31 33 35 38 39 40 42 43
23 20 17 19 18 16 16 17 16 15 18 30 28 24 25 20 20 19 16 17 18 19 22 23 25 28 27 27 28 30 32 34 38 38 39 41 42 43
18 16 19 22 18 17 18 16 18 17 17 17 20 24 24 23 21 19 21 21 22 23 24 26 27 27 28 28 28 30 31 35 38 39 40 42 42 42
9 11 12 22 24 19 15 15 14 16 17 19 23 25 26 24 20 21 23 21 25 25 27 27 27 27 27 26 28 29 32 36 39 40 40 41 41 43
8 10 13 14 15 17 17 18 19 20 22 23 25 27 26 23 23 21 20 22 27 25 27 28 26 27 26 27 29 29 32 35 38 38 38 40 42 42
9 9 9 12 14 15 16 18 22 24 27 23 21 23 22 20 18 17 19 23 26 24 25 26 24 27 27 28 25 28 30 33 35 36 39 38 40 41
12 11 11 10 12 14 16 18 21 24 24 21 18 18 17 15 16 16 17 19 20 23 24 28 25 28 27 25 22 25 31 33 33 35 36 38 38 40
13 13 13 13 12 12 13 15 15 15 15 14 13 13 14 14 13 13 16 18 23 23 23 25 25 28 26 24 25 29 29 29 33 34 35 35 37 38
12 12 11 9 8 9 9 10 11 12 13 13 14 15 15 15 16 17 16 20 20 22 24 25 25 26 26 22 28 28 28 31 32 32 32 34 35 34
10 12 11 8 9 10 10 11 11 8 10 11 13 14 15 15 17 17 17 19 21 22 20 20 23 25 26 28 27 25 30 31 31 31 32 32 33 33
11 10 9 8 9 10 10 6 7 9 10 12 13 14 12 14 16 17 18 18 19 17 18 19 22 25 27 29 29 30 31 30 30 31 31 31 31 31
7 5 4 5 7 8 7 8 9 10 11 12 13 15 15 14 14 15 16 16 17 18 19 20 23 25 25 27 29 31 33 32 27 32 31 31 31 32
4 6 7 7 7 7 8 10 11 12 12 13 12 13 13 15 15 16 16 17 18 19 19 21 22 25 27 27 29 30 30 31 32 31 30 29 29 29
3 7 8 10 9 13 11 12 12 13 14 13 13 14 14 15 16 15 17 18 20 21 21 24 25 26 25 27 28 29 31 30 30 30 29 29 29 29
7 8 11 9 10 11 12 13 14 13 12 12 14 15 16 16 16 17 18 19 21 22 24 25 27 29 29 25 26 28 29 29 29 28 27 28 29 29
9 10 10 11 12 13 13 13 14 14 13 14 15 16 16 15 16 17 18 20 22 23 25 26 28 30 33 33 29 25 28 28 28 27 25 26 28 27
10 11 12 11 12 13 13 13 13 14 14 14 14 15 15 15 16 18 20 22 23 24 25 26 28 30 31 32 31 29 25 24 25 25 25 25 25 24
11 11 11 12 12 11 12 12 13 13 14 14 14 15 16 17 18 20 20 22 23 25 27 28 29 26 27 27 30 30 27 23 20 22 22 24 26 26
12 12 12 12 12 12 12 12 12 13 13 14 15 16 17 18 19 20 22 24 25 27 27 28 28 28 29 29 32 32 28 26 22 19 16 14 19 23
13 12 12 12 12 12 11 11 12 13 14 14 15 16 18 19 20 21 23 24 25 27 27 29 29 28 29 29 30 30 30 26 23 23 22 19 12 10
Wind_Direction
229 233 236 245 252 256 263 267 251 254 264 274 284 308 311 320 319 324 327 326 322 327 331 332 330 327 326 326 326 327 327 328 328 328 327 327 326 326
226 230 230 242 247 254 260 269 270 268 265 286 295 289 293 303 316 322 327 328 325 330 326 328 330 329 327 328 329 329 329 328 328 327 327 326 324 324
226 224 230 237 243 246 257 268 272 273 269 290 287 296 293 302 305 313 317 321 325 330 332 331 329 330 328 328 328 328 329 327 326 326 325 325 325 324
221 226 225 223 237 253 261 268 273 272 276 273 283 286 295 296 305 305 308 315 326 332 330 328 326 328 327 326 328 327 326 327 326 326 325 327 326 325
226 221 210 235 241 250 260 269 272 273 277 277 279 284 288 292 301 304 306 310 313 319 324 325 323 325 326 326 325 325 326 326 327 325 327 327 327 326
231 222 237 243 245 255 270 265 271 275 276 274 278 282 289 293 295 286 296 301 307 312 317 319 320 321 322 323 324 325 325 326 327 327 328 328 329 330
227 232 226 251 257 260 262 270 271 274 278 278 283 286 287 291 283 286 292 293 304 307 311 314 317 318 319 322 324 325 325 326 327 329 329 330 331 330
213 254 262 257 250 263 273 278 280 278 282 282 285 285 283 285 286 284 285 293 301 309 310 312 317 319 321 323 324 326 327 328 329 331 332 332 331 332
247 240 250 259 258 266 277 284 290 294 294 288 282 289 289 288 286 286 291 298 304 310 313 315 320 321 323 323 326 329 331 331 332 332 333 336 335 334
240 236 233 248 265 263 274 283 293 300 300 302 301 303 305 301 297 295 300 307 313 315 317 315 321 321 325 327 330 333 332 332 337 338 338 337 337 337
274 270 258 265 268 271 272 283 292 303 326 328 328 326 323 319 315 310 307 308 310 313 320 318 323 324 325 327 332 332 336 340 340 339 340 341 341 341
284 285 278 270 269 274 274 274 285 298 311 319 325 329 329 326 323 321 316 312 316 315 323 319 323 329 327 331 333 338 342 341 340 341 343 344 346 347
288 290 294 288 289 290 290 288 289 297 313 322 323 322 328 326 326 327 325 321 319 324 333 333 330 333 332 332 337 343 342 342 343 344 345 348 348 350
288 296 303 308 309 310 313 314 310 309 311 314 321 321 331 333 335 333 332 334 342 345 346 344 336 336 335 335 337 339 341 343 345 346 347 348 349 350
302 312 328 343 345 338 335 333 324 323 321 319 324 323 329 339 343 342 341 342 344 346 347 344 341 341 339 338 337 339 340 342 348 344 346 346 347 349
345 336 334 338 333 332 342 328 321 321 326 326 332 334 343 342 342 342 337 335 337 338 345 343 346 344 339 339 339 339 341 341 343 345 346 347 349 351
337 322 320 317 323 315 326 328 327 330 324 325 329 335 338 337 338 344 339 337 335 339 341 339 345 344 343 339 339 341 342 343 345 345 347 347 350 351
335 327 318 335 329 324 325 335 333 342 342 342 333 334 333 335 336 340 340 338 337 339 337 340 342 342 343 346 348 343 345 346 347 348 348 348 349 353
342 326 329 328 327 326 331 332 331 334 342 335 335 335 340 343 340 342 341 339 338 337 338 341 342 342 339 338 344 353 345 346 347 349 350 350 349 352
344 331 330 330 330 329 330 332 334 339 342 343 344 346 346 346 343 339 337 336 337 338 339 342 342 342 341 340 339 342 345 345 347 347 349 351 352 353
348 345 344 340 339 342 343 342 343 344 345 346 346 345 344 341 338 338 339 340 338 338 337 338 342 345 345 344 341 343 346 346 347 345 348 350 354 357
5 0 356 354 353 355 349 345 346 345 346 345 343 343 341 341 339 338 338 336 336 337 337 340 343 344 344 343 340 340 343 346 346 347 346 346 351 355
9 7 7 7 5 6 8 4 359 355 350 347 345 343 341 340 340 339 338 338 338 338 339 339 341 342 342 342 342 341 342 345 346 347 348 353 352 348